Location: Plainartige
(45.6866°N, 1.7993°E)
Time: 23:11:13
(UTC+00:00)

SL-08 R/B - Pass Details

Date: 20 June 2021
Orbit: 950 x 1018 km, 82.9° (Epoch: 01 August)

Event Time Altitude Azimuth Distance (km) Brightness Sun altitude
Rises 20:24:05 0° 338° (NNW) 3,769 8.9 -6.0°
Reaches altitude 10° 20:27:29 10° 320° (NW) 2,814 8.7 -6.4°
Maximum altitude 20:31:36 18° 281° (W) 2,270 7.3 -7.0°
Drops below altitude 10° 20:35:42 10° 241° (WSW) 2,795 7.1 -7.5°
Sets 20:39:04 0° 223° (SW) 3,733 7.5 -7.9°
